Terminal Aerodrome Forecast
Issued by NWS Springfield, MO

Home | Current Version | Previous Version | Text Only | Print | Product List | Glossary On
Versions: 1 2 3 4 5 6 7 8 9 10 11 12 13 14 15 16 17 18 19 20 21 22 23 24 25
000
FTUS43 KSGF 020500 AAB
TAFSGF
TAF AMD
KSGF 020501Z 0205/0224 17012KT P6SM VCTS SCT040CB BKN080 OVC100
      TEMPO 0205/0208 5SM -TSRA BR BKN040CB
     FM020800 17009KT 5SM -TSRA BR BKN040CB OVC070
      TEMPO 0208/0210 2SM +TSRA BR SCT004 BKN025CB
     FM021300 20007KT P6SM SCT015 BKN070=

USA.gov is the U.S. government's official web portal to all federal, state and local government web resources and services.